MLP364 LIMC-LWSK

Flight info

Callsign MLP364
Flight time 1h 32m
Altitude 37000
Route VAKON DCT CHI DCT AGOMO DCT LABIN DCT MEDUX UM867 KOGAT
Aircraft A319/M-SDE3FGHIRWY/LB1

Departure

Time 2026-05-05 18:45
Airport Milan Malpensa International Airport (LIMC)

Arrival

Time 2026-05-05 20:17
Airport Skopje International Airport (LWSK)
Time Latitude Longitude Altitude Speed Heading
2026-05-05 18:18 45.62292 8.72038 737 ft 0 kts 79°
2026-05-05 18:35 45.62296 8.72071 735 ft 8 kts 79°
2026-05-05 18:36 45.62278 8.72134 737 ft 8 kts 162°
2026-05-05 18:36 45.62225 8.72148 737 ft 8 kts 170°
2026-05-05 18:36 45.62171 8.72162 737 ft 8 kts 169°
2026-05-05 18:36 45.62114 8.72178 736 ft 9 kts 168°
2026-05-05 18:37 45.62045 8.72198 737 ft 10 kts 170°
2026-05-05 18:37 45.61974 8.72216 735 ft 11 kts 169°
2026-05-05 18:37 45.61889 8.72239 737 ft 15 kts 167°
2026-05-05 18:37 45.61774 8.72273 737 ft 19 kts 168°
2026-05-05 18:38 45.61647 8.72309 737 ft 19 kts 169°
2026-05-05 18:38 45.61520 8.72345 737 ft 19 kts 169°
2026-05-05 18:38 45.61410 8.72358 737 ft 13 kts 204°
2026-05-05 18:38 45.61380 8.72246 737 ft 11 kts 260°
2026-05-05 18:39 45.61336 8.72194 737 ft 9 kts 176°
2026-05-05 18:39 45.61249 8.72218 737 ft 17 kts 169°
2026-05-05 18:39 45.61109 8.72258 737 ft 22 kts 169°
2026-05-05 18:39 45.60958 8.72299 737 ft 22 kts 169°
2026-05-05 18:40 45.60808 8.72340 737 ft 22 kts 169°
2026-05-05 18:40 45.60664 8.72402 737 ft 22 kts 137°
2026-05-05 18:40 45.60627 8.72605 737 ft 21 kts 96°
2026-05-05 18:40 45.60613 8.72817 737 ft 22 kts 96°
2026-05-05 18:41 45.60600 8.72998 737 ft 6 kts 97°
2026-05-05 18:41 45.60596 8.73047 736 ft 5 kts 97°
2026-05-05 18:41 45.60592 8.73111 737 ft 12 kts 94°
2026-05-05 18:41 45.60669 8.73294 737 ft 35 kts 22°
2026-05-05 18:42 45.60887 8.73405 737 ft 26 kts
2026-05-05 18:42 45.61064 8.73363 736 ft 26 kts 349°
2026-05-05 18:42 45.61238 8.73314 737 ft 25 kts 349°
2026-05-05 18:42 45.61409 8.73266 737 ft 25 kts 349°
2026-05-05 18:43 45.61567 8.73223 737 ft 14 kts 354°
2026-05-05 18:43 45.61615 8.73285 737 ft 11 kts 79°
2026-05-05 18:43 45.61633 8.73409 737 ft 14 kts 82°
2026-05-05 18:43 45.61589 8.73546 737 ft 17 kts 109°
2026-05-05 18:44 45.61614 8.73713 736 ft 19 kts 39°
2026-05-05 18:44 45.61752 8.73700 736 ft 24 kts 349°
2026-05-05 18:44 45.62119 8.73597 737 ft 90 kts 349°
2026-05-05 18:44 45.62947 8.73368 736 ft 150 kts 349°
2026-05-05 18:45 45.64073 8.73066 1090 ft 166 kts 351°
2026-05-05 18:45 45.65214 8.73238 1745 ft 170 kts 26°
2026-05-05 18:45 45.66068 8.74383 2360 ft 172 kts 64°
2026-05-05 18:45 45.66484 8.76079 2739 ft 192 kts 69°
2026-05-05 18:46 45.67392 8.77564 3169 ft 209 kts 35°
2026-05-05 18:46 45.68583 8.78791 3844 ft 212 kts 38°
2026-05-05 18:46 45.69764 8.80092 4498 ft 216 kts 39°
2026-05-05 18:46 45.70948 8.81440 5122 ft 219 kts 39°
2026-05-05 18:47 45.72088 8.82904 5596 ft 231 kts 53°
2026-05-05 18:47 45.72714 8.85073 6005 ft 244 kts 87°
2026-05-05 18:47 45.72429 8.87431 6782 ft 243 kts 118°
2026-05-05 18:47 45.71460 8.89398 7586 ft 243 kts 130°
2026-05-05 18:48 45.70414 8.91317 8419 ft 246 kts 130°
2026-05-05 18:48 45.69359 8.93272 9251 ft 250 kts 130°
2026-05-05 18:48 45.68290 8.95259 10054 ft 254 kts 130°
2026-05-05 18:48 45.67205 8.97276 10799 ft 258 kts 131°
2026-05-05 18:49 45.66101 8.99329 11546 ft 262 kts 131°
2026-05-05 18:49 45.65017 9.01450 12282 ft 268 kts 124°
2026-05-05 18:49 45.64248 9.03948 12825 ft 287 kts 109°
2026-05-05 18:49 45.63737 9.06827 13073 ft 311 kts 107°
2026-05-05 18:50 45.63195 9.09939 13291 ft 334 kts 107°
2026-05-05 18:50 45.62610 9.13273 13587 ft 353 kts 107°
2026-05-05 18:50 45.62007 9.16720 14151 ft 361 kts 107°
2026-05-05 18:50 45.61389 9.20220 14786 ft 366 kts 107°
2026-05-05 18:51 45.60758 9.23759 15436 ft 370 kts 108°
2026-05-05 18:51 45.60120 9.27329 16072 ft 374 kts 108°
2026-05-05 18:51 45.59474 9.30943 16712 ft 378 kts 108°
2026-05-05 18:51 45.58821 9.34595 17472 ft 382 kts 108°
2026-05-05 18:52 45.58158 9.38286 18121 ft 386 kts 109°
2026-05-05 18:52 45.57484 9.42017 18702 ft 390 kts 109°
2026-05-05 18:52 45.56805 9.45775 19252 ft 393 kts 109°
2026-05-05 18:52 45.56119 9.49574 19814 ft 397 kts 109°
2026-05-05 18:53 45.55439 9.53413 20361 ft 401 kts 108°
2026-05-05 18:53 45.54791 9.57296 20914 ft 405 kts 108°
2026-05-05 18:53 45.54159 9.61227 21467 ft 408 kts 108°
2026-05-05 18:53 45.53537 9.65146 21998 ft 412 kts 108°
2026-05-05 18:54 45.52901 9.69144 22514 ft 415 kts 108°
2026-05-05 18:54 45.52251 9.73177 22960 ft 419 kts 108°
2026-05-05 18:54 45.51585 9.77238 23477 ft 422 kts 108°
2026-05-05 18:54 45.50907 9.81333 23903 ft 426 kts 109°
2026-05-05 18:55 45.50221 9.85457 24310 ft 429 kts 109°
2026-05-05 18:55 45.49530 9.89620 24701 ft 433 kts 109°
2026-05-05 18:55 45.48833 9.93809 25090 ft 437 kts 109°
2026-05-05 18:55 45.48126 9.98044 25464 ft 440 kts 109°
2026-05-05 18:56 45.47415 10.02306 25842 ft 444 kts 109°
2026-05-05 18:56 45.46699 10.06595 26214 ft 447 kts 109°
2026-05-05 18:56 45.45976 10.10925 26582 ft 451 kts 109°
2026-05-05 18:56 45.45245 10.15290 26942 ft 454 kts 109°
2026-05-05 18:57 45.44505 10.19681 27306 ft 458 kts 109°
2026-05-05 18:57 45.43752 10.24115 27668 ft 461 kts 109°
2026-05-05 18:57 45.42992 10.28563 28025 ft 464 kts 109°
2026-05-05 18:57 45.42224 10.33044 28405 ft 468 kts 109°
2026-05-05 18:58 45.41448 10.37566 28754 ft 471 kts 109°
2026-05-05 18:58 45.40670 10.42114 29097 ft 474 kts 109°
2026-05-05 18:58 45.39887 10.46689 29434 ft 478 kts 109°
2026-05-05 18:58 45.39096 10.51298 29761 ft 481 kts 109°
2026-05-05 18:59 45.38301 10.55939 30081 ft 484 kts 109°
2026-05-05 18:59 45.37498 10.60604 30346 ft 487 kts 109°
2026-05-05 18:59 45.36687 10.65294 30614 ft 490 kts 109°
2026-05-05 18:59 45.35869 10.70002 30885 ft 492 kts 109°
2026-05-05 19:00 45.35048 10.74684 31140 ft 495 kts 109°
2026-05-05 19:00 45.34210 10.79446 31400 ft 497 kts 109°
2026-05-05 19:00 45.33368 10.84223 31688 ft 499 kts 109°
2026-05-05 19:00 45.32530 10.88997 32065 ft 498 kts 109°
2026-05-05 19:01 45.31691 10.93779 32421 ft 498 kts 110°
2026-05-05 19:01 45.30850 10.98557 32772 ft 499 kts 110°
2026-05-05 19:01 45.30005 11.03334 33076 ft 499 kts 110°
2026-05-05 19:01 45.29161 11.08108 33428 ft 499 kts 110°
2026-05-05 19:02 45.28314 11.12888 33778 ft 499 kts 110°
2026-05-05 19:02 45.27459 11.17672 34115 ft 499 kts 110°
2026-05-05 19:02 45.26598 11.22460 34475 ft 498 kts 110°
2026-05-05 19:02 45.25743 11.27210 34867 ft 496 kts 109°
2026-05-05 19:03 45.24895 11.31937 35266 ft 493 kts 109°
2026-05-05 19:03 45.24051 11.36637 35664 ft 490 kts 109°
2026-05-05 19:03 45.23211 11.41303 36042 ft 487 kts 109°
2026-05-05 19:03 45.22368 11.45952 36407 ft 485 kts 109°
2026-05-05 19:04 45.21528 11.50571 36765 ft 482 kts 108°
2026-05-05 19:04 45.20688 11.55173 36978 ft 481 kts 108°
2026-05-05 19:04 45.19029 11.64250 37005 ft 476 kts 108°
2026-05-05 19:05 45.17362 11.73328 37005 ft 475 kts 108°
2026-05-05 19:05 45.15682 11.82398 37002 ft 475 kts 108°
2026-05-05 19:06 45.14287 11.89926 36998 ft 475 kts 108°
2026-05-05 19:06 45.12602 11.98985 36991 ft 476 kts 108°
2026-05-05 19:07 45.10903 12.08043 36980 ft 476 kts 108°
2026-05-05 19:07 45.09198 12.17098 36977 ft 476 kts 108°
2026-05-05 19:08 45.07491 12.26149 36974 ft 476 kts 108°
2026-05-05 19:08 45.06369 12.35416 36981 ft 479 kts 100°
2026-05-05 19:09 45.05420 12.44744 36977 ft 479 kts 101°
2026-05-05 19:09 45.04451 12.54075 36978 ft 479 kts 101°
2026-05-05 19:10 45.03477 12.63346 36978 ft 479 kts 101°
2026-05-05 19:10 45.02488 12.72666 36980 ft 479 kts 101°
2026-05-05 19:11 45.01501 12.81995 36982 ft 479 kts 100°
2026-05-05 19:11 45.00509 12.91323 36980 ft 479 kts 100°
2026-05-05 19:12 44.99511 13.00637 36981 ft 479 kts 100°
2026-05-05 19:12 44.98289 13.09880 36986 ft 477 kts 110°
2026-05-05 19:13 44.95916 13.18584 36984 ft 475 kts 115°
2026-05-05 19:13 44.93479 13.27191 36986 ft 475 kts 114°
2026-05-05 19:14 44.91026 13.35849 36985 ft 475 kts 114°
2026-05-05 19:14 44.88562 13.44506 36993 ft 475 kts 114°
2026-05-05 19:15 44.86098 13.53151 37007 ft 475 kts 114°
2026-05-05 19:15 44.83607 13.61808 37010 ft 476 kts 114°
2026-05-05 19:16 44.81114 13.70446 37009 ft 476 kts 114°
2026-05-05 19:16 44.78621 13.79077 37007 ft 476 kts 114°
2026-05-05 19:17 44.76113 13.87717 37010 ft 476 kts 114°
2026-05-05 19:17 44.73602 13.96341 37012 ft 476 kts 114°
2026-05-05 19:18 44.71103 14.04907 37013 ft 477 kts 114°
2026-05-05 19:18 44.68577 14.13521 37016 ft 477 kts 114°
2026-05-05 19:19 44.66041 14.22144 37018 ft 477 kts 115°
2026-05-05 19:19 44.63497 14.30768 37022 ft 478 kts 115°
2026-05-05 19:20 44.60946 14.39375 37019 ft 478 kts 115°
2026-05-05 19:20 44.58378 14.47998 37024 ft 478 kts 115°
2026-05-05 19:21 44.55810 14.56613 37031 ft 479 kts 115°
2026-05-05 19:21 44.53258 14.65180 37032 ft 479 kts 115°
2026-05-05 19:22 44.50676 14.73794 37035 ft 479 kts 115°
2026-05-05 19:22 44.48075 14.82414 37041 ft 480 kts 115°
2026-05-05 19:23 44.45470 14.91031 37047 ft 480 kts 115°
2026-05-05 19:23 44.42856 14.99633 37053 ft 480 kts 115°
2026-05-05 19:24 44.40240 15.08238 37054 ft 481 kts 115°
2026-05-05 19:24 44.37634 15.16781 37060 ft 481 kts 115°
2026-05-05 19:25 44.35007 15.25374 37060 ft 481 kts 115°
2026-05-05 19:25 44.32371 15.33950 37064 ft 480 kts 115°
2026-05-05 19:26 44.29730 15.42509 37064 ft 480 kts 115°
2026-05-05 19:26 44.27085 15.51059 37067 ft 479 kts 115°
2026-05-05 19:27 44.24433 15.59593 37067 ft 479 kts 115°
2026-05-05 19:27 44.21780 15.68120 37071 ft 479 kts 115°
2026-05-05 19:28 44.19123 15.76635 37069 ft 478 kts 115°
2026-05-05 19:28 44.16458 15.85119 37073 ft 478 kts 115°
2026-05-05 19:29 44.13807 15.93545 37074 ft 478 kts 115°
2026-05-05 19:29 44.11137 16.02011 37072 ft 477 kts 115°
2026-05-05 19:30 44.08461 16.10470 37069 ft 477 kts 115°
2026-05-05 19:30 44.05777 16.18922 37077 ft 476 kts 115°
2026-05-05 19:31 44.03097 16.27349 37077 ft 476 kts 115°
2026-05-05 19:31 44.00422 16.35707 37083 ft 476 kts 115°
2026-05-05 19:32 43.97726 16.44114 37086 ft 475 kts 115°
2026-05-05 19:32 43.95032 16.52507 37088 ft 475 kts 115°
2026-05-05 19:33 43.92336 16.60873 37094 ft 475 kts 115°
2026-05-05 19:33 43.89631 16.69225 37099 ft 474 kts 115°
2026-05-05 19:34 43.86925 16.77557 37107 ft 474 kts 115°
2026-05-05 19:35 43.82868 16.89989 37102 ft 474 kts 115°
2026-05-05 19:35 43.80145 16.98299 37102 ft 474 kts 115°
2026-05-05 19:36 43.77421 17.06606 37101 ft 474 kts 115°
2026-05-05 19:36 43.74689 17.14905 37108 ft 474 kts 116°
2026-05-05 19:37 43.71957 17.23191 37108 ft 473 kts 116°
2026-05-05 19:37 43.69214 17.31476 37110 ft 473 kts 116°
2026-05-05 19:38 43.66464 17.39737 37111 ft 473 kts 116°
2026-05-05 19:38 43.63710 17.47989 37107 ft 473 kts 116°
2026-05-05 19:39 43.60958 17.56232 37111 ft 473 kts 116°
2026-05-05 19:39 43.58213 17.64416 37106 ft 472 kts 116°
2026-05-05 19:40 43.55442 17.72645 37105 ft 472 kts 116°
2026-05-05 19:40 43.52670 17.80860 37113 ft 473 kts 116°
2026-05-05 19:41 43.49892 17.89059 37109 ft 472 kts 116°
2026-05-05 19:41 43.47111 17.97246 37109 ft 471 kts 116°
2026-05-05 19:42 43.44331 18.05419 37108 ft 471 kts 116°
2026-05-05 19:42 43.41543 18.13566 37112 ft 471 kts 116°
2026-05-05 19:43 43.38750 18.21721 37109 ft 471 kts 116°
2026-05-05 19:43 43.35954 18.29869 37115 ft 471 kts 116°
2026-05-05 19:44 43.33169 18.37946 37115 ft 471 kts 116°
2026-05-05 19:44 43.30356 18.46076 37109 ft 471 kts 116°
2026-05-05 19:45 43.27535 18.54200 37108 ft 471 kts 116°
2026-05-05 19:45 43.24713 18.62323 37104 ft 471 kts 116°
2026-05-05 19:46 43.21884 18.70436 37099 ft 472 kts 116°
2026-05-05 19:46 43.19047 18.78554 37093 ft 472 kts 116°
2026-05-05 19:47 43.16205 18.86654 37093 ft 472 kts 116°
2026-05-05 19:47 43.13370 18.94694 37094 ft 472 kts 116°
2026-05-05 19:48 43.10511 19.02788 37086 ft 472 kts 116°
2026-05-05 19:48 43.07648 19.10879 37089 ft 472 kts 116°
2026-05-05 19:49 43.04780 19.18974 37084 ft 473 kts 116°
2026-05-05 19:49 43.01908 19.27070 37082 ft 473 kts 116°
2026-05-05 19:50 42.99506 19.33796 37079 ft 473 kts 116°
2026-05-05 19:50 42.96613 19.41880 37079 ft 474 kts 116°
2026-05-05 19:51 42.93705 19.49976 37068 ft 474 kts 116°
2026-05-05 19:51 42.90794 19.58053 37064 ft 474 kts 116°
2026-05-05 19:52 42.87879 19.66138 37063 ft 475 kts 116°
2026-05-05 19:52 42.84957 19.74221 37063 ft 475 kts 116°
2026-05-05 19:53 42.82010 19.82306 36483 ft 481 kts 116°
2026-05-05 19:53 42.80502 19.86447 35480 ft 490 kts 116°
2026-05-05 19:53 42.78995 19.90581 35063 ft 484 kts 116°
2026-05-05 19:53 42.77502 19.94672 34483 ft 482 kts 116°
2026-05-05 19:54 42.76029 19.98707 33880 ft 481 kts 116°
2026-05-05 19:54 42.74362 20.02638 33330 ft 477 kts 125°
2026-05-05 19:54 42.72338 20.06169 32827 ft 471 kts 130°
2026-05-05 19:54 42.70261 20.09594 32291 ft 467 kts 130°
2026-05-05 19:55 42.68208 20.12985 31767 ft 463 kts 130°
2026-05-05 19:55 42.66167 20.16356 31261 ft 458 kts 130°
2026-05-05 19:55 42.64152 20.19684 30757 ft 454 kts 130°
2026-05-05 19:55 42.62159 20.22974 30263 ft 449 kts 130°
2026-05-05 19:56 42.60182 20.26237 29729 ft 445 kts 130°
2026-05-05 19:56 42.58226 20.29457 29255 ft 439 kts 131°
2026-05-05 19:56 42.56296 20.32622 28800 ft 433 kts 131°
2026-05-05 19:56 42.54384 20.35749 28359 ft 427 kts 131°
2026-05-05 19:57 42.52502 20.38824 27916 ft 422 kts 131°
2026-05-05 19:57 42.50636 20.41871 27485 ft 417 kts 130°
2026-05-05 19:57 42.48790 20.44880 27067 ft 413 kts 130°
2026-05-05 19:57 42.46966 20.47854 26648 ft 409 kts 130°
2026-05-05 19:58 42.45155 20.50810 26230 ft 406 kts 130°
2026-05-05 19:58 42.43381 20.53707 25823 ft 403 kts 130°
2026-05-05 19:58 42.41596 20.56614 25397 ft 401 kts 130°
2026-05-05 19:58 42.39814 20.59506 24966 ft 398 kts 130°
2026-05-05 19:59 42.38043 20.62378 24527 ft 396 kts 130°
2026-05-05 19:59 42.36279 20.65240 24081 ft 395 kts 130°
2026-05-05 19:59 42.34527 20.68089 23629 ft 393 kts 130°
2026-05-05 19:59 42.32781 20.70927 23118 ft 391 kts 130°
2026-05-05 20:00 42.31045 20.73742 22674 ft 388 kts 130°
2026-05-05 20:00 42.29322 20.76528 22224 ft 385 kts 130°
2026-05-05 20:00 42.27612 20.79284 21777 ft 382 kts 130°
2026-05-05 20:00 42.25906 20.82026 21342 ft 379 kts 130°
2026-05-05 20:01 42.24237 20.84704 20913 ft 376 kts 130°
2026-05-05 20:01 42.22554 20.87407 20480 ft 374 kts 130°
2026-05-05 20:01 42.20889 20.90083 20049 ft 371 kts 130°
2026-05-05 20:01 42.19235 20.92745 19626 ft 369 kts 130°
2026-05-05 20:02 42.17590 20.95385 19206 ft 367 kts 130°
2026-05-05 20:02 42.15951 20.98013 18789 ft 365 kts 130°
2026-05-05 20:02 42.14322 21.00624 18360 ft 363 kts 130°
2026-05-05 20:02 42.12702 21.03224 17919 ft 360 kts 130°
2026-05-05 20:03 42.11252 21.05949 17503 ft 357 kts 120°
2026-05-05 20:03 42.10207 21.08958 17102 ft 353 kts 112°
2026-05-05 20:03 42.09280 21.12008 16698 ft 351 kts 112°
2026-05-05 20:03 42.08354 21.15034 16309 ft 348 kts 112°
2026-05-05 20:04 42.07432 21.18038 15912 ft 346 kts 112°
2026-05-05 20:04 42.06516 21.21016 15520 ft 344 kts 112°
2026-05-05 20:04 42.05605 21.23984 15139 ft 342 kts 112°
2026-05-05 20:04 42.04700 21.26931 14749 ft 340 kts 112°
2026-05-05 20:05 42.03797 21.29867 14359 ft 338 kts 113°
2026-05-05 20:05 42.02896 21.32790 13978 ft 336 kts 113°
2026-05-05 20:05 42.02002 21.35691 13564 ft 334 kts 113°
2026-05-05 20:05 42.01127 21.38530 13182 ft 331 kts 113°
2026-05-05 20:06 42.00247 21.41378 12797 ft 328 kts 113°
2026-05-05 20:06 41.99372 21.44197 12413 ft 325 kts 113°
2026-05-05 20:06 41.98503 21.46988 12027 ft 323 kts 113°
2026-05-05 20:06 41.97640 21.49762 11640 ft 320 kts 113°
2026-05-05 20:07 41.96784 21.52513 11283 ft 317 kts 113°
2026-05-05 20:07 41.95938 21.55232 11157 ft 306 kts 113°
2026-05-05 20:07 41.95127 21.57841 10698 ft 301 kts 112°
2026-05-05 20:07 41.94235 21.60361 10162 ft 296 kts 123°
2026-05-05 20:08 41.92915 21.62377 9742 ft 287 kts 141°
2026-05-05 20:08 41.91244 21.63754 9333 ft 277 kts 158°
2026-05-05 20:08 41.89432 21.64479 8968 ft 267 kts 166°
2026-05-05 20:08 41.87662 21.65088 8607 ft 258 kts 166°
2026-05-05 20:09 41.85953 21.65682 8255 ft 249 kts 166°
2026-05-05 20:09 41.84303 21.66257 7911 ft 240 kts 166°
2026-05-05 20:09 41.82768 21.67030 7574 ft 234 kts 148°
2026-05-05 20:09 41.81559 21.68447 7233 ft 231 kts 127°
2026-05-05 20:10 41.80700 21.70267 6893 ft 231 kts 121°
2026-05-05 20:10 41.79865 21.72100 6554 ft 230 kts 122°
2026-05-05 20:10 41.79025 21.73922 6204 ft 231 kts 122°
2026-05-05 20:10 41.78155 21.75688 5921 ft 226 kts 132°
2026-05-05 20:11 41.76884 21.76842 5805 ft 214 kts 163°
2026-05-05 20:11 41.75456 21.77005 5693 ft 204 kts 191°
2026-05-05 20:11 41.74177 21.76270 5588 ft 201 kts 218°
2026-05-05 20:11 41.73304 21.74870 5485 ft 200 kts 244°
2026-05-05 20:12 41.73009 21.73078 5462 ft 199 kts 272°
2026-05-05 20:12 41.73364 21.71292 5401 ft 201 kts 298°
2026-05-05 20:12 41.74307 21.69921 5246 ft 203 kts 327°
2026-05-05 20:12 41.75627 21.69255 5013 ft 204 kts 344°
2026-05-05 20:13 41.77008 21.68785 4735 ft 205 kts 344°
2026-05-05 20:13 41.78393 21.68310 4436 ft 206 kts 344°
2026-05-05 20:13 41.79777 21.67833 4162 ft 204 kts 344°
2026-05-05 20:13 41.81150 21.67357 3835 ft 203 kts 344°
2026-05-05 20:14 41.82515 21.66884 3547 ft 201 kts 344°
2026-05-05 20:14 41.83864 21.66417 3267 ft 199 kts 345°
2026-05-05 20:14 41.85197 21.65954 2985 ft 196 kts 345°
2026-05-05 20:14 41.86498 21.65503 2702 ft 195 kts 345°
2026-05-05 20:15 41.87786 21.65056 2433 ft 187 kts 345°
2026-05-05 20:15 41.89010 21.64631 2169 ft 176 kts 345°
2026-05-05 20:15 41.90134 21.64244 1905 ft 158 kts 346°
2026-05-05 20:15 41.91160 21.63894 1646 ft 145 kts 346°
2026-05-05 20:16 41.92111 21.63559 1428 ft 138 kts 346°
2026-05-05 20:16 41.93027 21.63232 1231 ft 135 kts 347°
2026-05-05 20:16 41.93929 21.62913 1044 ft 133 kts 347°
2026-05-05 20:16 41.94826 21.62608 868 ft 132 kts 348°
2026-05-05 20:17 41.95704 21.62307 787 ft 122 kts 346°
2026-05-05 20:17 41.96381 21.62066 790 ft 76 kts 346°
2026-05-05 20:17 41.96733 21.61945 791 ft 36 kts 345°
2026-05-05 20:17 41.96934 21.61877 789 ft 22 kts 348°
2026-05-05 20:18 41.97005 21.61901 784 ft 9 kts 72°
2026-05-05 20:18 41.96986 21.61976 786 ft 8 kts 129°
2026-05-05 20:18 41.96950 21.62034 786 ft 8 kts 129°
2026-05-05 20:18 41.96918 21.62088 789 ft 7 kts 129°
2026-05-05 20:19 41.96887 21.62138 789 ft 7 kts 131°
2026-05-05 20:19 41.96845 21.62170 790 ft 9 kts 162°
2026-05-05 20:19 41.96777 21.62194 789 ft 11 kts 165°
2026-05-05 20:19 41.96701 21.62220 790 ft 12 kts 166°
2026-05-05 20:20 41.96620 21.62248 790 ft 13 kts 165°
2026-05-05 20:20 41.96533 21.62280 789 ft 13 kts 165°
2026-05-05 20:20 41.96439 21.62313 791 ft 14 kts 165°
2026-05-05 20:20 41.96341 21.62347 791 ft 15 kts 166°
2026-05-05 20:21 41.96235 21.62385 786 ft 16 kts 165°
2026-05-05 20:21 41.96146 21.62418 784 ft 8 kts 166°
2026-05-05 20:21 41.96123 21.62435 786 ft 3 kts 117°
2026-05-05 20:21 41.96122 21.62447 787 ft 1 kts 91°
2026-05-05 20:22 41.96125 21.62466 787 ft 4 kts 78°
2026-05-05 20:22 41.96135 21.62519 788 ft 8 kts 76°
2026-05-05 20:22 41.96144 21.62564 788 ft 2 kts 75°
2026-05-05 20:22 41.96144 21.62567 789 ft 0 kts 76°